Location: ????
(55.5675°N, 37.6272°E)
Time: 07:15:15
(UTC+00:00)

Cosmos 2084 Rocket - Pass Details

Date: 14 April 2026
Orbit: 531 x 579 km, 62.8° (Epoch: 12 May)

Event Time Altitude Azimuth Distance (km) Brightness Sun altitude
Exits shadow 19:50:40 45° 229° (SW) 752 3.8 -21.6°
Maximum altitude 19:51:52 88° 144° (SE) 556 3.2 -21.7°
Drops below altitude 10° 19:56:02 10° 53° (NE) 1,845 6.1 -21.9°
Sets 19:58:16 0° 54° (NE) 2,752 7.0 -22.1°
